Theta_e
309 309 309 308 307 306 307 306 303 303 303 305 307 307 305 303 302 302 301 302 296 291 292 294 294 292 292 292 289 293 292 293 293 288 288 289 288 289 288 290 289 288 287 286 287 284 282 299 298 291 297 302 301 301
308 308 308 308 307 306 307 305 304 303 302 305 306 308 306 304 302 302 297 301 300 293 293 298 298 299 297 296 294 295 293 293 295 291 293 292 287 290 288 283 294 287 292 290 291 291 300 301 300 300 300 298 302 300
309 309 308 308 307 307 306 305 303 302 302 303 305 308 307 304 302 301 299 299 297 292 293 295 295 300 302 301 302 292 296 296 297 300 295 294 287 292 287 289 290 293 296 290 291 295 296 298 300 301 301 300 302 302
308 308 309 308 307 306 306 305 302 302 302 303 304 307 306 304 303 302 299 301 299 294 287 294 300 297 302 302 301 299 297 301 300 300 294 291 289 295 291 292 290 293 294 292 294 296 294 297 299 301 302 303 301 300
307 308 308 308 307 306 306 304 302 303 303 303 303 305 306 303 303 301 301 300 301 294 290 292 298 300 302 301 300 300 298 294 294 291 292 290 295 293 294 292 289 295 291 288 287 292 290 294 300 302 300 300 300 297
307 307 307 308 308 306 305 303 302 303 303 303 304 305 305 302 301 298 293 299 302 299 291 287 298 297 299 300 299 299 296 293 294 291 292 295 299 293 289 289 295 295 297 294 289 294 295 300 302 302 299 298 299 299
307 307 307 308 308 306 305 303 303 303 302 303 304 305 302 301 300 293 292 298 301 301 290 288 293 298 299 300 301 295 295 293 293 293 293 294 296 293 289 287 292 294 292 294 298 301 299 301 298 300 300 299 300 297
306 306 307 307 307 306 305 303 303 303 302 303 303 301 300 300 299 295 299 300 302 296 293 286 290 294 301 298 295 302 294 292 293 293 294 293 294 292 288 292 292 290 292 296 297 300 301 302 300 299 299 298 293 292
305 306 306 307 307 306 304 303 304 302 302 303 300 299 299 296 293 297 302 302 302 296 288 289 287 291 299 297 299 299 298 288 294 291 293 294 290 288 289 289 289 290 291 293 298 301 300 298 296 297 296 293 291 290
305 306 306 306 307 305 304 304 302 302 303 300 298 293 289 296 303 304 297 292 289 292 292 288 295 291 296 296 295 297 298 295 291 294 294 290 289 294 292 290 290 292 294 297 297 296 297 295 295 294 292 291 291 290
305 306 306 306 306 304 304 303 302 302 299 295 291 290 295 299 298 294 290 289 289 287 291 292 294 291 298 290 291 295 291 294 288 290 289 289 290 291 291 290 292 295 297 299 301 300 300 296 296 293 292 292 291 291
305 306 306 306 305 304 304 302 301 297 294 294 293 296 296 292 290 286 287 291 288 287 292 292 295 295 297 299 291 292 290 292 285 296 290 288 290 291 290 290 292 294 296 298 301 301 299 296 297 294 292 292 292 292
305 305 306 305 304 304 302 302 299 297 297 295 292 290 288 288 282 282 282 286 287 293 295 295 292 295 295 296 293 293 287 288 297 290 287 289 292 290 290 291 291 293 294 299 302 301 298 298 297 295 293 293 292 291
305 305 305 304 304 303 303 300 299 297 295 289 287 283 284 284 287 289 290 292 294 294 294 295 293 293 296 291 293 287 291 292 286 284 281 288 290 290 290 291 291 291 294 297 301 300 297 296 297 295 295 294 292 290
305 305 304 303 303 303 300 300 298 297 293 289 290 283 285 291 295 295 294 292 294 296 294 293 294 294 292 289 291 289 285 280 284 284 286 290 290 290 290 291 290 291 293 296 301 300 299 297 296 296 295 295 294 292
305 304 302 303 303 300 300 299 295 294 292 290 290 287 291 291 291 293 292 292 297 296 297 297 292 288 285 287 283 279 282 281 284 286 290 292 291 291 290 291 291 292 294 296 298 300 300 298 297 296 297 295 294 293
303 298 302 302 301 299 296 293 292 289 289 287 287 292 292 293 292 292 294 295 299 294 291 293 286 281 289 284 281 284 283 285 288 289 291 291 291 291 292 291 292 292 293 295 297 300 301 301 299 297 294 296 296 295
299 301 302 300 297 295 294 293 290 288 285 288 287 290 293 295 293 294 297 298 296 295 293 290 293 287 284 281 283 286 289 292 293 291 290 291 293 293 293 293 293 292 292 293 295 295 299 301 298 296 296 296 296 295
300 299 299 297 296 293 290 290 292 286 287 290 291 293 293 295 298 298 298 299 300 300 295 293 288 288 286 288 288 288 290 293 289 290 291 293 294 294 294 295 295 294 292 292 293 293 296 299 299 299 297 296 294 294
299 298 298 297 297 292 289 289 294 290 287 289 293 292 294 295 297 297 296 296 295 294 291 289 291 291 290 290 291 292 294 295 293 290 290 292 293 294 294 293 293 295 294 291 291 290 294 297 298 299 299 296 295 294
296 296 296 296 294 293 293 290 289 292 292 290 293 294 293 295 294 293 293 296 293 292 290 292 290 291 294 294 294 294 293 294 292 293 289 290 293 294 294 294 295 296 293 291 288 288 289 291 294 297 301 299 298 295
293 295 292 293 291 291 292 294 292 293 292 292 293 294 292 291 291 292 293 292 292 293 293 290 290 290 291 290 292 294 293 294 294 294 291 292 292 291 291 292 293 292 292 290 289 288 289 290 291 296 298 301 299 298
295 294 292 291 289 289 288 295 289 290 287 289 292 290 290 291 292 293 290 292 293 295 294 294 293 293 292 292 293 293 293 294 290 292 293 292 293 292 291 291 292 291 289 288 290 290 289 288 290 292 295 297 300 298
296 291 287 287 288 285 291 288 291 289 291 289 288 286 289 290 292 290 288 290 292 293 293 293 293 292 292 291 291 292 293 295 294 294 292 291 290 290 291 291 291 291 291 289 289 289 291 290 289 290 291 292 296 298
286 285 287 283 289 285 284 285 286 287 285 287 287 287 288 291 288 287 288 290 290 291 292 293 292 292 291 292 292 291 291 296 295 291 290 291 290 291 290 291 291 291 291 290 289 289 290 291 291 289 289 290 290 296
282 285 284 285 285 284 285 283 285 285 286 286 287 291 292 290 286 285 291 292 291 292 292 292 291 291 291 292 290 290 289 294 295 291 290 290 289 288 288 288 288 288 290 290 290 289 290 290 290 290 289 288 287 290
281 283 287 292 288 288 287 288 289 287 285 285 288 288 288 284 284 290 292 294 293 293 294 294 293 292 291 290 290 291 291 293 292 290 291 291 290 289 288 286 286 287 289 290 289 289 289 289 289 290 290 290 288 288
286 286 283 286 286 289 285 286 286 285 287 291 290 286 285 286 288 290 293 293 295 295 294 294 294 293 291 291 290 290 289 290 290 290 291 290 291 289 289 289 289 283 289 289 288 289 288 289 289 289 289 290 289 288
285 288 288 284 286 286 286 286 287 290 292 291 288 288 287 287 289 290 292 294 294 293 291 290 289 290 289 290 290 290 291 290 288 285 284 286 286 286 288 288 289 289 289 290 284 285 286 287 288 289 290 291 291 288
284 289 285 285 283 284 288 292 291 292 292 292 291 289 288 287 290 293 293 292 291 290 290 289 289 289 288 287 286 287 288 289 288 288 286 284 284 287 287 287 287 288 288 289 289 289 285 288 288 290 289 290 288 286
288 288 285 286 285 289 291 291 291 290 290 289 290 289 287 286 288 291 292 293 292 291 290 288 289 290 289 288 287 286 285 287 286 285 286 287 286 286 286 286 287 287 288 287 288 288 288 288 288 287 287 286 286 284
286 285 285 283 286 290 292 290 289 287 287 287 286 288 287 286 283 287 289 291 290 289 287 289 289 289 291 291 290 289 286 287 286 285 284 285 285 285 285 286 286 286 286 286 286 286 286 286 286 285 285 283 282 283
286 286 286 286 285 285 288 288 286 283 284 284 283 284 283 284 281 285 288 290 291 290 290 291 291 291 290 289 288 287 286 285 281 279 279 278 278 280 284 284 285 285 285 285 285 285 284 284 283 282 282 281 281 281
Wind_Speed
21 21 21 20 18 16 16 14 13 10 8 14 12 9 9 7 6 6 1 4 5 4 9 5 5 9 6 5 6 6 6 5 5 3 2 3 4 3 7 7 8 5 4 5 6 7 5 4 5 9 16 19 21 21
20 20 21 22 21 19 17 16 15 11 8 13 14 12 11 8 7 7 3 4 4 5 7 12 15 16 15 12 6 2 5 5 4 3 1 4 3 5 7 4 2 4 4 5 5 6 15 17 15 18 18 18 20 20
19 20 21 22 22 21 18 17 16 14 11 13 15 14 12 9 9 9 4 2 3 4 8 6 3 6 8 13 10 5 3 4 1 5 3 2 5 2 4 4 7 6 10 6 11 5 13 18 18 14 18 17 19 20
18 19 20 21 22 21 19 19 17 16 14 14 13 15 12 10 10 9 5 4 4 3 5 1 2 5 3 8 13 15 8 2 5 3 3 4 3 2 4 7 11 10 8 9 14 12 18 12 13 16 20 18 21 21
18 19 19 19 22 22 21 21 19 18 17 13 13 16 14 10 8 6 7 6 7 5 5 6 12 2 5 9 11 12 12 10 6 3 4 4 3 3 5 4 6 5 6 3 5 20 15 19 23 23 17 21 23 23
17 18 18 19 21 24 24 24 21 19 16 14 15 16 13 9 5 3 4 4 7 5 3 5 5 4 5 7 9 11 8 5 5 4 4 4 5 3 3 3 6 15 19 15 7 16 21 23 16 18 18 23 23 24
17 17 18 18 20 23 24 24 21 20 16 15 15 12 13 9 4 4 4 3 7 5 2 5 4 4 3 3 4 3 7 3 4 3 4 5 3 4 2 3 16 19 18 19 19 17 20 17 20 24 24 24 22 17
18 17 17 17 18 22 24 24 21 19 16 14 10 11 9 6 5 6 6 9 7 2 3 3 4 4 0 1 2 6 4 2 5 3 3 3 1 2 3 15 19 16 18 16 18 20 21 20 22 24 22 17 18 13
17 17 17 17 18 23 24 22 21 17 15 10 13 9 3 3 3 2 6 14 4 2 2 3 3 0 2 3 3 4 5 4 5 4 2 2 1 3 7 13 15 16 14 19 21 19 19 20 22 24 20 18 13 13
16 16 16 16 18 24 23 22 21 16 13 16 5 3 3 4 6 17 5 4 3 3 4 4 5 3 3 2 3 0 3 2 3 2 3 2 3 5 11 11 12 15 15 17 17 21 21 21 24 22 16 14 12 13
15 15 15 15 21 24 23 23 20 18 12 2 3 3 1 0 2 3 4 5 4 4 5 4 6 5 3 4 4 4 3 3 3 2 2 3 2 12 17 16 14 15 16 17 16 17 18 20 20 18 18 15 13 13
14 14 13 16 23 23 25 24 25 6 3 5 3 1 0 2 4 5 5 5 5 4 6 4 3 4 1 1 3 4 4 4 2 1 2 2 6 14 15 17 18 17 18 19 19 17 20 20 16 17 15 12 12 13
13 13 13 20 24 26 26 24 17 22 14 4 3 4 3 5 7 7 8 5 5 5 6 6 4 3 4 3 4 3 2 2 2 0 2 3 10 11 13 14 17 18 17 18 17 17 20 21 17 17 15 13 14 15
12 12 18 24 27 26 24 25 28 16 3 4 6 7 6 7 7 5 5 4 5 4 6 4 2 4 2 4 2 3 2 3 2 2 3 7 12 12 14 13 12 15 17 17 17 16 17 19 19 16 15 15 13 14
11 15 24 26 27 25 27 27 22 3 3 4 5 6 8 5 2 5 4 6 4 4 4 4 3 3 1 0 1 3 3 2 1 1 3 7 12 12 13 14 13 13 15 14 16 15 17 17 18 17 14 15 14 14
14 21 9 27 26 28 27 20 4 1 2 2 5 5 3 6 6 6 6 6 4 4 3 1 2 2 2 1 3 3 3 3 2 2 5 7 11 13 13 13 12 12 13 13 14 14 14 16 18 18 15 15 14 13
16 1 27 29 29 28 20 4 3 4 3 4 5 5 5 4 7 6 5 5 3 4 3 2 4 3 3 2 3 2 1 2 2 3 4 8 10 12 12 12 12 14 13 13 13 14 14 14 16 17 19 15 15 15
4 20 33 33 22 11 2 2 3 5 5 6 4 5 5 2 5 6 4 5 3 2 3 1 3 5 3 3 3 3 2 1 2 3 3 6 8 9 9 12 11 12 13 12 13 13 13 15 14 13 16 15 13 16
20 22 34 28 9 5 4 3 3 4 5 3 5 3 4 4 3 5 4 4 2 2 4 3 2 3 3 2 4 3 2 2 2 4 4 4 7 8 10 11 12 12 12 13 12 10 10 12 11 10 10 11 11 10
31 31 26 12 1 3 4 4 4 3 4 4 4 6 4 4 5 5 5 4 4 3 3 2 1 2 3 5 4 3 1 1 2 3 4 5 6 8 8 9 8 9 8 11 10 11 11 10 10 12 9 9 11 12
20 12 10 3 2 2 1 4 5 4 3 4 6 7 5 6 5 5 4 3 3 1 3 2 5 4 6 5 4 2 4 3 3 2 5 5 6 6 7 7 9 7 8 8 9 10 10 10 11 10 11 9 8 9
5 9 3 1 1 1 2 3 2 3 3 3 7 5 5 5 5 4 4 3 1 2 3 5 7 6 6 5 5 1 4 1 4 2 5 3 6 7 7 7 8 9 8 8 9 9 9 9 10 11 10 12 9 9
11 3 2 2 2 2 2 4 4 5 4 8 7 6 4 4 4 5 3 2 2 3 6 8 9 8 8 7 6 4 1 2 2 2 4 5 5 6 6 7 8 9 9 9 9 8 8 11 11 11 10 11 11 9
3 3 3 3 3 3 5 4 3 4 3 6 7 5 6 4 5 4 3 4 5 7 7 10 9 7 7 7 4 3 2 1 2 3 5 5 5 6 6 6 6 8 8 7 8 10 9 8 11 11 11 11 12 9
3 3 3 3 4 5 5 5 5 5 6 6 9 5 5 4 5 5 4 5 8 8 8 9 8 7 6 6 5 4 1 1 2 3 5 5 6 5 6 6 6 8 9 9 10 11 12 12 10 11 11 11 14 13
3 4 6 5 4 4 5 5 8 8 5 6 6 5 4 4 5 5 4 8 8 10 10 9 8 7 7 6 5 4 4 1 1 3 5 5 6 6 7 8 8 8 10 9 10 11 12 12 13 15 11 12 12 12
3 3 3 1 3 2 2 2 4 6 7 6 6 6 6 5 6 3 3 4 7 9 9 8 7 7 7 6 6 4 3 3 4 5 4 3 5 6 6 7 9 9 9 10 10 11 12 12 11 13 12 11 10 11
1 2 5 6 4 4 4 5 6 7 7 3 6 8 5 3 3 3 2 6 8 10 9 8 7 7 7 7 5 5 5 5 6 4 3 3 3 5 6 5 6 4 7 7 9 9 11 10 10 11 11 11 10 10
3 3 3 6 5 4 4 4 5 2 4 4 6 4 4 4 2 3 6 9 10 10 10 10 9 8 8 6 5 5 4 4 4 5 3 4 4 5 6 6 7 7 7 9 3 4 10 8 9 9 10 9 8 9
4 3 4 5 5 6 2 3 3 5 4 5 4 4 4 3 3 3 8 9 9 10 10 10 9 8 8 8 7 7 6 5 5 4 4 5 4 5 5 7 7 8 8 9 9 10 6 8 7 8 10 9 9 9
2 4 3 3 2 1 3 4 5 6 3 4 4 4 6 5 4 4 4 7 7 8 10 10 9 8 8 8 8 7 7 6 7 7 6 4 5 5 6 6 6 6 7 8 9 10 12 11 10 11 12 13 13 10
4 4 3 5 3 1 2 1 2 3 2 3 3 4 5 4 4 3 3 3 7 8 7 8 8 8 7 6 6 8 8 7 6 5 6 5 6 6 6 5 6 7 8 9 9 9 12 13 12 13 12 13 14 14
3 2 2 0 3 5 4 3 3 4 2 2 3 3 4 3 4 3 2 4 2 6 7 7 7 8 9 10 10 9 9 9 11 8 8 8 9 9 6 6 6 7 8 8 9 10 12 13 13 14 15 15 14 14
Wind_Direction
242 234 223 218 215 226 235 223 233 226 250 271 274 242 243 245 257 261 16 199 275 263 281 253 251 273 259 246 286 22 258 182 251 266 328 319 287 356 270 310 297 288 278 206 222 237 262 65 310 290 319 317 314 307
246 239 229 221 212 214 227 217 218 216 230 262 268 244 232 233 240 243 264 169 227 250 288 314 277 267 256 263 305 227 323 297 347 309 309 304 307 304 349 294 251 280 330 294 263 288 315 318 341 337 322 285 297 306
250 243 236 228 217 209 211 208 205 214 217 247 260 254 218 215 228 232 261 181 221 263 266 235 220 193 215 228 226 268 167 328 230 351 315 327 273 259 283 268 303 302 311 260 306 260 331 329 320 284 281 300 303 309
251 248 244 231 218 209 205 200 199 217 221 232 259 274 205 201 226 235 231 226 229 308 282 124 180 229 211 207 207 215 271 281 291 283 283 261 246 242 282 298 299 287 317 299 284 292 330 291 307 305 307 308 317 308
250 250 246 237 219 208 200 193 197 217 225 215 243 272 199 191 225 251 257 229 230 271 314 310 305 277 184 194 213 217 225 248 258 259 248 252 255 303 245 284 267 9 9 307 290 300 285 276 286 298 306 313 314 322
248 250 248 241 224 209 196 191 199 214 211 221 240 260 185 169 191 241 247 194 208 203 278 287 13 224 192 215 230 223 214 204 250 218 252 265 246 193 268 270 72 347 336 321 278 277 276 275 304 310 317 318 319 316
253 252 251 244 233 208 192 192 197 207 203 224 238 262 148 170 184 221 345 29 177 157 244 273 242 149 243 261 163 125 162 197 227 231 242 256 261 184 258 274 338 339 316 311 298 320 319 325 314 319 316 319 321 316
254 252 250 244 229 202 188 190 198 192 202 223 248 146 150 190 230 256 226 172 169 196 241 269 275 229 192 282 217 163 143 203 211 252 235 234 115 227 252 343 332 316 313 306 322 316 309 309 319 317 321 333 322 315
251 250 247 240 224 192 184 187 183 181 204 211 132 156 153 202 213 222 125 160 209 308 260 233 258 257 189 228 237 199 149 199 170 228 221 212 183 54 342 320 318 315 312 303 312 320 323 326 321 318 341 328 326 319
250 248 243 234 211 183 176 173 169 186 164 134 170 163 210 193 156 128 149 145 188 215 230 247 260 260 291 312 241 324 229 266 233 82 88 218 111 48 9 324 304 310 312 322 332 337 338 339 334 341 338 324 317 312
250 246 238 229 184 171 167 165 163 142 124 122 179 215 21 356 181 215 194 209 177 213 205 233 251 285 141 286 324 18 327 271 259 105 253 186 106 -0 347 327 328 336 337 336 330 336 345 345 337 339 329 328 325 321
249 241 227 199 173 167 160 158 150 125 124 131 120 136 224 202 201 219 205 171 205 228 175 206 201 222 118 254 219 215 240 212 287 53 207 154 34 358 332 330 336 342 343 333 323 353 353 347 1 342 335 332 328 333
245 231 208 174 162 157 157 160 140 122 114 133 194 174 198 176 222 218 192 182 203 185 165 180 183 219 163 221 251 261 244 279 307 288 53 60 0 341 331 333 335 340 337 338 341 358 358 351 6 353 344 346 345 344
234 213 176 160 155 156 158 141 139 129 125 172 175 185 226 184 229 198 214 158 106 152 157 187 167 225 110 203 324 276 29 278 247 185 73 24 351 335 333 332 334 334 335 336 345 359 5 358 359 1 353 354 354 351
208 177 158 153 151 150 143 149 141 133 173 189 205 210 213 242 213 180 113 127 125 125 151 159 152 223 73 32 255 271 225 168 238 13 355 347 340 330 335 339 337 337 337 337 337 0 1 2 0 5 5 359 359 357
167 144 152 146 145 141 145 133 96 168 221 237 230 250 225 213 158 167 173 126 137 130 151 192 141 154 123 239 207 179 226 220 106 328 346 343 335 336 338 336 334 329 341 339 342 352 357 4 3 6 9 8 359 6
133 142 142 136 134 129 115 100 139 189 214 224 225 236 264 249 172 156 167 116 151 203 176 185 190 160 136 169 193 206 237 90 295 346 4 346 330 333 337 338 335 345 350 349 344 348 354 359 4 5 10 8 2 5
96 136 133 130 124 114 86 118 167 179 213 227 236 197 197 277 156 145 127 141 197 184 185 165 140 196 202 188 193 175 151 236 38 21 344 324 338 340 341 344 346 352 350 356 349 347 347 355 4 4 356 1 12 5
136 133 131 132 126 118 136 160 228 212 213 188 223 208 182 125 58 94 109 124 101 114 138 189 190 199 174 171 136 152 168 19 350 342 323 340 346 348 340 345 351 357 2 357 351 353 347 355 360 357 1 357 7 5
129 127 129 122 74 119 131 143 210 242 182 192 210 177 178 132 126 121 122 140 154 165 187 199 130 87 145 130 162 132 102 62 341 355 354 3 353 345 354 345 346 349 7 355 351 359 356 360 2 342 359 3 1 6
108 113 69 73 63 15 191 149 179 208 166 196 162 161 132 150 151 155 144 157 197 211 153 122 122 124 127 134 120 133 91 356 50 354 1 347 345 353 357 3 355 357 22 358 354 345 -0 358 346 337 334 4 4 13
89 95 101 264 118 182 188 184 228 127 199 149 164 171 151 169 162 158 136 195 188 121 135 153 151 142 150 141 122 84 75 352 57 347 263 314 360 2 3 8 5 9 22 5 353 348 343 345 344 341 351 345 6 26
99 80 101 124 135 178 161 172 176 183 175 172 160 157 156 160 123 158 185 151 119 154 156 151 147 171 127 132 132 131 64 95 125 312 14 2 8 13 3 14 15 12 11 1 345 345 342 340 344 355 355 357 348 29
151 91 134 140 181 152 159 176 201 173 159 180 184 167 158 128 155 219 195 159 141 152 156 149 160 148 149 152 170 137 77 334 118 70 21 1 13 19 11 13 21 25 17 8 -0 353 354 356 347 352 357 5 354 18
143 141 176 168 200 164 161 149 188 202 171 174 182 134 145 159 183 199 212 151 162 170 161 169 172 174 164 148 135 125 74 290 120 72 38 16 4 5 16 19 32 38 7 10 8 359 359 356 2 4 358 0 0 351
147 164 199 180 151 180 165 167 185 190 166 174 181 122 160 171 181 221 189 163 171 171 168 172 168 160 150 147 145 135 102 102 145 95 64 29 21 8 5 5 5 24 7 2 359 358 359 358 355 360 1 360 355 357
143 179 178 251 137 177 159 221 192 187 194 183 157 162 175 189 211 112 120 146 158 155 160 158 156 150 140 121 108 108 100 88 45 71 86 47 40 21 7 5 2 6 340 1 356 354 357 356 353 352 353 359 1 356
27 201 173 166 175 199 216 193 193 193 204 142 172 191 189 188 98 90 92 149 149 142 140 141 136 133 129 124 123 125 119 114 125 148 153 135 80 40 13 7 12 288 329 9 -0 357 359 350 353 353 350 349 355 351
192 154 146 184 198 213 227 221 208 103 5 202 195 136 104 63 42 103 148 143 140 132 130 128 123 122 123 116 102 91 105 136 123 104 81 51 30 34 9 4 1 2 358 351 70 37 1 344 354 348 354 353 360 354
159 182 209 204 211 212 181 330 85 76 37 53 87 117 101 80 51 180 143 144 147 147 143 142 145 149 145 140 124 106 81 64 43 39 56 56 37 11 5 4 3 1 357 354 355 359 2 346 11 12 11 9 13 358
157 191 223 224 241 45 82 98 96 100 95 68 41 91 109 121 81 29 139 148 142 137 144 151 156 153 152 147 139 136 120 95 81 64 34 43 28 23 14 5 0 357 356 358 359 4 1 2 9 6 10 6 3 2
197 205 220 205 162 160 156 132 85 78 80 133 118 138 144 115 99 107 5 172 158 155 147 156 153 142 138 119 90 80 83 108 94 63 41 29 26 16 7 2 3 1 360 2 6 9 7 8 5 3 3 5 357 352
146 192 224 168 157 185 183 169 134 108 93 87 82 67 39 49 86 87 22 342 199 150 159 145 135 129 124 119 113 105 90 87 84 79 71 53 33 5 357 9 0 6 6 9 10 11 14 14 13 6 4 2 0 358